[TLELIST] Archives

 

Current TLEs

July 23rd 2006 PDT

HST 1 20580U 90037B 06203.95715618 .00000426 00000-0 20378-4 0 6608 2 20580 028.4667 176.7016 0003805 199.8084 160.2398 15.00067226690477 ISS (ZARYA) 1 25544U 98067A 06204.17674769 .00008060 00000-0 53683-4 0 3547 2 25544 051.6350 002.0624 0010946 105.9460 239.4825 15.76444825438836 CXO 1 25867U 99040B 06204.75000000 .00000000 00000-0 00000+0 0 9522 2 25867 059.9751 096.2228 5817219 290.0595 355.7129 00.37783274 1215 ____________________________________________________________________ These 2-Line ...Continue Reading

Current TLEs

July 22nd 2006 PDT

HST 1 20580U 90037B 06202.36036812 .00000491 00000-0 25462-4 0 6593 2 20580 028.4667 187.1103 0003573 183.4932 176.5629 15.00066573690238 ISS (ZARYA) 1 25544U 98067A 06203.49911944 .00008282 00000-0 55069-4 0 3489 2 25544 051.6352 005.5550 0010970 103.3625 353.8049 15.76433741438739 CXO 1 25867U 99040B 06200.45833333 .00000000 00000-0 00000+0 0 9517 2 25867 059.9382 096.2579 5820899 290.2333 131.3782 00.37816593 1218 ____________________________________________________________________ These 2-Line ...Continue Reading

Current TLEs

July 21st 2006 PDT

HST 1 20580U 90037B 06201.29584202 +.00000260 +00000-0 +73230-5 0 06596 2 20580 028.4673 194.0500 0003805 174.0397 186.0230 15.00065340690079 ISS (ZARYA) 1 25544U 98067A 06202.47671442 .00008882 00000-0 58801-4 0 3418 2 25544 051.6345 010.8235 0010814 099.1172 311.8548 15.76417854438573 CXO 1 25867U 99040B 06200.45833333 .00000000 00000-0 00000+0 0 9517 2 25867 059.9382 096.2579 5820899 290.2333 131.3782 00.37816593 1218 ____________________________________________________________________ These 2-Line ...Continue Reading

Current TLEs

July 20th 2006 PDT

HST 1 20580U 90037B 06200.43091422 +.00000235 +00000-0 +53575-5 0 06589 2 20580 028.4675 199.6877 0003929 166.7195 193.3494 15.00065039689942 ISS (ZARYA) 1 25544U 98067A 06201.45350684 .00009365 00000-0 57627-4 0 3352 2 25544 051.6332 016.1003 0010642 096.0756 264.1991 15.76398944438417 CXO 1 25867U 99040B 06200.45833333 .00000000 00000-0 00000+0 0 9517 2 25867 059.9382 096.2579 5820899 290.2333 131.3782 00.37816593 1218 ____________________________________________________________________ These 2-Line ...Continue Reading

Current TLEs

July 19th 2006 PDT

HST 1 20580U 90037B 06200.03171676 .00001442 00000-0 10000-3 0 6568 2 20580 028.4679 202.2885 0003838 159.5468 200.5483 15.00071543689887 ISS (ZARYA) 1 25544U 98067A 06200.31256944 .00008679 00000-0 57655-4 0 3268 2 25544 051.6345 021.9789 0010865 090.4568 270.6183 15.76375303438231 CXO 1 25867U 99040B 06200.45833333 .00000000 00000-0 00000+0 0 9517 2 25867 059.9382 096.2579 5820899 290.2333 131.3782 00.37816593 1218 ____________________________________________________________________ These 2-Line ...Continue Reading

Current TLEs

July 18th 2006 PDT

HST 1 20580U 90037B 06198.36839393 .00000335 00000-0 13251-4 0 6558 2 20580 028.4679 213.1387 0003974 148.8489 211.2333 15.00065362689638 ISS (ZARYA) 1 25544U 98067A 06199.49528882 .00027290 00000-0 17193-3 0 3214 2 25544 051.6332 026.1927 0010943 087.4841 312.4783 15.76386716438102 CXO 1 25867U 99040B 06197.83333333 .00000000 00000-0 00000+0 0 9508 2 25867 059.9025 096.3290 5820525 290.2447 134.0350 00.37804900 1215 ____________________________________________________________________ These 2-Line ...Continue Reading

Current TLEs

July 17th 2006 PDT

HST 1 20580U 90037B 06197.23733434 .00000344 00000-0 13960-4 0 6548 2 20580 028.4680 220.5113 0003999 137.0050 223.0852 15.00065080689465 ISS (ZARYA) 1 25544U 98067A 06198.49145045 .00011813 00000-0 77053-4 0 3158 2 25544 051.6327 031.3656 0010655 083.7824 015.6597 15.76346743437945 CXO 1 25867U 99040B 06197.83333333 .00000000 00000-0 00000+0 0 9508 2 25867 059.9025 096.3290 5820525 290.2447 134.0350 00.37804900 1215 ____________________________________________________________________ These 2-Line ...Continue Reading

Current TLEs

July 16th 2006 PDT

HST 1 20580U 90037B 06197.23733434 .00000344 00000-0 13960-4 0 6548 2 20580 028.4680 220.5113 0003999 137.0050 223.0852 15.00065080689465 ISS (ZARYA) 1 25544U 98067A 06197.47394574 .00001109 00000-0 11022-4 0 3069 2 25544 051.6333 036.6088 0010719 080.9605 000.4266 15.76307091437786 CXO 1 25867U 99040B 06197.83333333 .00000000 00000-0 00000+0 0 9508 2 25867 059.9025 096.3290 5820525 290.2447 134.0350 00.37804900 1215 ____________________________________________________________________ These 2-Line ...Continue Reading

Current TLEs

July 15th 2006 PDT

HST 1 20580U 90037B 06195.50747755 .00000368 00000-0 15827-4 0 6536 2 20580 028.4682 231.7869 0003994 118.6998 241.3996 15.00064736689201 ISS (ZARYA) 1 25544U 98067A 06196.46018385 .00009026 00000-0 59931-4 0 2976 2 25544 051.6317 041.8335 0010837 079.1928 005.5322 15.76320928437626 CXO 1 25867U 99040B 06194.20833333 .00000000 00000-0 00000+0 0 9499 2 25867 059.9109 096.4356 5801178 290.3757 000.2758 00.37782088 1218 ____________________________________________________________________ These 2-Line ...Continue Reading

Current TLEs

July 14th 2006 PDT

HST 1 20580U 90037B 06194.50948260 +.00000372 +00000-0 +16134-4 0 06659 2 20580 028.4682 238.2928 0003914 108.9380 251.1635 15.00064334689054 ISS (ZARYA) 1 25544U 98067A 06195.30306713 .00009003 00000-0 59846-4 0 2917 2 25544 051.6323 047.7983 0010891 075.1363 278.8451 15.76299201437432 CXO 1 25867U 99040B 06194.20833333 .00000000 00000-0 00000+0 0 9499 2 25867 059.9109 096.4356 5801178 290.3757 000.2758 00.37782088 1218 ____________________________________________________________________ These 2-Line ...Continue Reading
  • This mailing list is a public mailing list - anyone may join or leave, at any time.
  • This mailing list is announce-only.

International Space Station (ISS) / Hubble Space Telescope (HST) / Chandra X-Ray Observatory Orbital Data via EMAIL

Privacy Policy:

Private list